FW6525 Weather Reports


time (UTC)temp
C
wind
direction
speed
KPH
gust
KPH
rain 1hr
cm
rain 24hr
cm
rain mn
cm
humidity
%
barometer
mb
20260507104511 18 275 3.2 6.4 0.00 0.00 0.00 69 1007.1
20260507103511 19 238 1.6 4.8 0.00 0.00 0.00 68 1006.9
20260507103009 19 271 1.6 9.7 0.00 0.00 0.00 68 1006.9
20260507102512 19 294 3.2 9.7 0.00 0.00 0.00 68 1007.1
20260507102010 19 259 3.2 4.8 0.00 0.00 0.00 68 1006.8
20260507101511 18 222 1.6 4.8 0.00 0.00 0.00 69 1006.9
20260507101010 19 237 0.0 4.8 0.00 0.00 0.00 69 1007.1
20260507100523 19 242 3.2 6.4 0.00 0.00 0.00 70 1007.2
20260507100010 18 266 1.6 9.7 0.00 0.00 0.00 71 1007.3
20260507095512 18 329 4.8 9.7 0.00 0.00 0.00 71 1006.9
20260507095010 18 276 1.6 6.4 0.00 0.00 0.00 72 1006.8
20260507094512 18 244 0.0 6.4 0.00 0.00 0.00 72 1006.8
20260507094009 18 300 4.8 4.8 0.00 0.00 0.00 72 1006.9
20260507093512 18 234 1.6 6.4 0.00 0.00 0.00 73 1007.2
20260507093010 18 279 0.0 6.4 0.00 0.00 0.00 73 1006.8
20260507092512 18 301 3.2 6.4 0.00 0.00 0.00 73 1006.8
20260507092010 18 305 3.2 6.4 0.00 0.00 0.00 73 1007.2
20260507091512 18 248 3.2 9.7 0.00 0.00 0.00 74 1006.7
20260507091010 18 341 3.2 9.7 0.00 0.00 0.00 74 1006.8
20260507090511 18 266 3.2 9.7 0.00 0.00 0.00 73 1006.7
20260507090008 18 24 3.2 9.7 0.00 0.00 0.00 72 1006.5
20260507085511 18 331 3.2 11.3 0.00 0.00 0.00 73 1006.6
20260507085008 17 325 1.6 11.3 0.00 0.00 0.00 75 1006.4
20260507083511 17 312 4.8 14.5 0.00 0.00 0.00 77 1006.5
20260507083008 17 269 3.2 14.5 0.00 0.00 0.00 78 1006.6
20260507082511 17 299 6.4 11.3 0.00 0.00 0.00 78 1006.3
20260507082008 16 301 6.4 14.5 0.00 0.00 0.00 78 1006.5
20260507081510 16 335 4.8 14.5 0.00 0.00 0.00 80 1006.5
20260507081008 16 342 8.0 12.9 0.00 0.00 0.00 79 1006.3
20260507080511 16 307 3.2 16.1 0.00 0.00 0.00 79 1006.3
20260507080007 16 267 1.6 16.1 0.00 0.00 0.00 80 1006.4
20260507075510 16 260 3.2 17.7 0.00 0.00 0.00 80 1006.3
20260507074957 16 332 4.8 17.7 0.00 0.00 0.00 80 1006.3
20260507074456 16 268 4.8 20.9 0.00 0.00 0.00 79 1005.9
20260507073957 16 354 6.4 20.9 0.00 0.00 0.00 80 1005.9
20260507073456 16 18 3.2 14.5 0.00 0.00 0.00 80 1006.1
20260507072457 17 258 11.3 14.5 0.00 0.00 0.00 79 1005.8
20260507071957 16 259 3.2 14.5 0.00 0.00 0.00 80 1005.7
20260507071455 16 351 4.8 14.5 0.00 0.00 0.00 79 1005.6
20260507070957 16 268 6.4 14.5 0.00 0.00 0.00 79 1005.7
20260507070457 16 265 3.2 14.5 0.00 0.00 0.00 80 1005.5
20260507065957 16 228 8.0 14.5 0.00 0.00 0.00 80 1005.6
20260507065455 16 287 8.0 16.1 0.00 0.00 0.00 81 1005.5
20260507064957 16 320 3.2 16.1 0.00 0.00 0.00 81 1005.4
20260507064456 16 313 6.4 12.9 0.00 0.00 0.00 81 1005.6
20260507063957 16 289 8.0 11.3 0.00 0.00 0.00 81 1005.4
20260507063458 16 287 4.8 9.7 0.00 0.00 0.00 81 1005.2
20260507062457 15 187 1.6 11.3 0.00 0.00 0.00 82 1005.2
20260507061958 15 276 1.6 9.7 0.00 0.00 0.00 83 1005.1
20260507061457 15 257 1.6 9.7 0.00 0.00 0.00 83 1004.9
20260507060958 15 349 0.0 4.8 0.00 0.00 0.00 84 1005.2
20260507060457 15 211 1.6 3.2 0.00 0.00 0.00 84 1005.2
20260507055958 15 271 0.0 3.2 0.00 0.00 0.00 84 1005.2
20260507055457 15 284 3.2 3.2 0.00 0.00 0.00 85 1005.2
20260507054957 15 273 3.2 3.2 0.00 0.00 0.00 85 1004.9
20260507054456 15 217 0.0 3.2 0.00 0.00 0.00 86 1004.8
20260507053957 15 278 1.6 3.2 0.00 0.00 0.00 86 1004.9
20260507053456 14 251 0.0 3.2 0.00 0.00 0.00 86 1004.9
20260507052958 14 281 1.6 3.2 0.00 0.00 0.00 86 1004.8
20260507051957 14 278 0.0 3.2 0.00 0.00 0.00 86 1004.8
20260507051456 14 255 0.0 1.6 0.00 0.00 0.00 86 1004.7
20260507050958 14 247 0.0 1.6 0.00 0.00 0.00 86 1004.8
20260507045959 14 260 0.0 3.2 0.00 0.00 0.00 86 1004.5
20260507045457 14 274 0.0 3.2 0.00 0.00 0.00 86 1004.5
20260507044959 14 247 0.0 3.2 0.00 0.00 0.00 86 1004.4
20260507044458 14 256 1.6 3.2 0.00 0.00 0.00 86 1004.6
20260507043958 14 247 0.0 0.0 0.00 0.00 0.00 86 1004.4
20260507042958 14 260 0.0 3.2 0.00 0.00 0.00 86 1004.4
20260507042457 14 258 0.0 3.2 0.00 0.00 0.00 86 1004.3
20260507040957 14 283 1.6 4.8 0.00 0.00 0.00 85 1003.9
20260507040456 14 284 1.6 6.4 0.00 0.00 0.00 84 1004.1
20260507035958 14 294 4.8 6.4 0.00 0.00 0.00 84 1004.1
20260507035456 14 276 0.0 1.6 0.00 0.00 0.00 83 1003.6
20260507034957 14 256 0.0 1.6 0.00 0.00 0.00 83 1003.7
20260507034456 14 269 0.0 4.8 0.00 0.00 0.00 82 1003.8
20260507033958 14 248 1.6 4.8 0.00 0.00 0.00 82 1003.8
20260507033457 15 248 1.6 4.8 0.00 0.00 0.00 82 1003.6
20260507032456 15 285 1.6 3.2 0.00 0.00 0.00 81 1003.4
20260507031957 14 289 3.2 3.2 0.00 0.00 0.00 81 1003.7
20260507031456 14 261 0.0 1.6 0.00 0.00 0.00 81 1003.3
20260507030957 15 264 0.0 1.6 0.00 0.00 0.00 81 1003.3
20260507030456 15 276 0.0 1.6 0.00 0.00 0.00 81 1003.5
20260507025958 14 228 0.0 1.6 0.00 0.00 0.00 81 1003.1
20260507025456 14 233 0.0 1.6 0.00 0.00 0.00 81 1003.1
20260507024958 14 233 0.0 1.6 0.00 0.00 0.00 81 1003.2
20260507024456 14 259 0.0 0.0 0.00 0.00 0.00 82 1003.1
20260507023958 14 259 0.0 1.6 0.00 0.00 0.00 82 1003.1
20260507023456 14 235 0.0 1.6 0.00 0.00 0.00 82 1003.4
20260507022957 14 247 0.0 1.6 0.00 0.00 0.00 82 1003.1
20260507021959 13 246 0.0 1.6 0.00 0.00 0.00 83 1003.2
20260507021458 13 248 0.0 1.6 0.00 0.00 0.00 84 1003.0
20260507020958 13 233 1.6 1.6 0.00 0.00 0.00 84 1002.9
20260507020457 13 234 0.0 1.6 0.00 0.00 0.00 84 1003.1
20260507015957 13 234 0.0 1.6 0.00 0.00 0.00 84 1003.3
20260507015444 13 275 0.0 1.6 0.00 0.00 0.00 83 1003.3
20260507014943 13 247 0.0 1.6 0.00 0.00 0.00 83 1003.1
20260507014444 13 246 0.0 1.6 0.00 0.00 0.00 83 1003.3
20260507013932 13 246 0.0 0.0 0.00 0.00 0.00 82 1003.0
20260507013431 13 247 0.0 1.6 0.00 0.00 0.00 82 1003.0
20260507012932 13 248 0.0 1.6 0.00 0.00 0.00 82 1003.1
20260507012432 13 243 0.0 3.2 0.00 0.00 0.00 82 1003.0
20260507011932 13 235 1.6 3.2 0.00 0.00 0.00 81 1002.7
20260507011430 13 227 1.6 3.2 0.00 0.00 0.00 81 1003.1
20260507010931 14 244 0.0 3.2 0.00 0.00 0.00 81 1002.8
20260507010430 13 233 0.0 3.2 0.00 0.00 0.00 81 1002.8
20260507005932 13 269 0.0 3.2 0.00 0.00 0.00 81 1003.1
20260507005431 13 254 0.0 6.4 0.00 0.00 0.00 81 1003.0
20260507004933 13 254 0.0 6.4 0.00 0.00 0.00 81 1002.6
20260507004419 13 233 1.6 1.6 0.00 0.00 0.00 80 1003.0
20260507003919 13 259 0.0 3.2 0.00 0.00 0.00 79 1002.8
20260507002907 14 278 0.0 1.6 0.00 0.00 0.00 79 1002.7
20260507002406 14 246 0.0 1.6 0.00 0.00 0.00 79 1002.9
20260507001907 14 246 0.0 3.2 0.00 0.00 0.00 79 1002.9
20260507001406 14 224 1.6 3.2 0.00 0.00 0.00 78 1002.8
20260507000907 14 234 0.0 0.0 0.00 0.00 0.00 77 1002.8
20260507000406 15 234 0.0 0.0 0.00 0.00 0.00 76 1002.7
20260506235907 15 234 0.0 0.0 0.00 0.00 0.00 76 1002.8
20260506235406 15 234 0.0 1.6 0.00 0.00 0.00 74 1002.7
20260506234907 15 231 0.0 1.6 0.00 0.00 0.00 74 1002.8
20260506234406 16 231 0.0 1.6 0.00 0.00 0.00 73 1002.8
20260506233907 16 230 1.6 1.6 0.00 0.00 0.00 72 1002.7
20260506233406 16 231 0.0 1.6 0.00 0.00 0.00 72 1002.7
20260506232907 16 254 0.0 3.2 0.00 0.00 0.00 71 1002.9
20260506232406 16 255 0.0 3.2 0.00 0.00 0.00 71 1002.9
20260506231907 16 270 0.0 3.2 0.00 0.00 0.00 71 1003.2
20260506231406 16 282 1.6 1.6 0.00 0.00 0.00 71 1003.2
20260506230907 16 246 0.0 1.6 0.00 0.00 0.00 71 1002.7
20260506225907 16 242 0.0 1.6 0.00 0.00 0.00 71 1003.0
20260506225406 16 242 0.0 1.6 0.00 0.00 0.00 70 1002.8
20260506224907 16 242 0.0 0.0 0.00 0.00 0.00 71 1002.7
20260506224406 16 242 0.0 0.0 0.00 0.00 0.00 71 1002.9
20260506223909 16 242 0.0 0.0 0.00 0.00 0.00 70 1002.9
20260506223402 16 251 0.0 0.0 0.00 0.00 0.00 70 1002.6
20260506222856 16 242 0.0 0.0 0.00 0.00 0.00 70 1002.8
20260506221855 17 234 0.0 1.6 0.00 0.00 0.00 70 1002.7
20260506221357 17 225 0.0 1.6 0.00 0.00 0.00 69 1002.8
20260506220856 17 228 0.0 1.6 0.00 0.00 0.00 67 1002.6
20260506220357 17 234 0.0 3.2 0.00 0.00 0.00 67 1002.9
20260506215855 18 237 0.0 4.8 0.00 0.00 0.00 66 1002.6
20260506214356 18 226 1.6 3.2 0.00 0.00 0.00 66 1002.7
20260506213855 18 235 0.0 3.2 0.00 0.00 0.00 65 1002.6
20260506213357 18 214 1.6 6.4 0.00 0.00 0.00 65 1002.8
20260506212855 18 257 0.0 6.4 0.00 0.00 0.00 64 1002.7
20260506212357 18 312 1.6 6.4 0.00 0.00 0.00 63 1002.6
20260506211856 19 300 0.0 4.8 0.00 0.00 0.00 63 1002.6
20260506211357 19 276 1.6 4.8 0.00 0.00 0.00 63 1002.6
20260506210855 19 244 1.6 6.4 0.00 0.00 0.00 63 1002.8
20260506205855 19 351 0.0 6.4 0.00 0.00 0.00 62 1002.8
20260506204856 19 20 1.6 4.8 0.00 0.00 0.00 63 1002.6
20260506204356 19 321 3.2 4.8 0.00 0.00 0.00 63 1002.3
20260506203854 19 27 0.0 6.4 0.00 0.00 0.00 64 1002.3
20260506203356 18 92 3.2 6.4 0.00 0.00 0.00 65 1002.5
20260506202854 18 209 1.6 3.2 0.00 0.00 0.00 65 1002.6
20260506202356 18 225 1.6 3.2 0.00 0.00 0.00 65 1002.1
20260506201854 18 240 0.0 3.2 0.00 0.00 0.00 66 1002.3
20260506201355 18 237 0.0 3.2 0.00 0.00 0.00 65 1002.2
20260506200854 18 251 0.0 3.2 0.00 0.00 0.00 65 1002.2
20260506200357 18 259 0.0 3.2 0.00 0.00 0.00 65 1002.3
20260506195855 18 205 1.6 3.2 0.00 0.00 0.00 65 1002.0
20260506194355 18 36 1.6 3.2 0.00 0.00 0.00 63 1002.2
20260506192854 18 145 1.6 3.2 0.00 0.00 0.00 64 1002.1
20260506192355 19 280 0.0 3.2 0.00 0.00 0.00 63 1002.2
20260506191855 19 202 0.0 3.2 0.00 0.00 0.00 62 1002.3
20260506190855 19 324 1.6 3.2 0.00 0.00 0.00 62 1002.2
20260506190355 19 24 1.6 3.2 0.00 0.00 0.00 62 1002.0
20260506185854 19 236 1.6 3.2 0.00 0.00 0.00 62 1002.1
20260506185355 20 196 0.0 3.2 0.00 0.00 0.00 61 1002.1
20260506184855 20 252 0.0 4.8 0.00 0.00 0.00 60 1002.0
20260506184355 20 299 0.0 4.8 0.00 0.00 0.00 60 1001.9
20260506183855 20 232 0.0 1.6 0.00 0.00 0.00 61 1002.2
20260506183357 20 218 0.0 1.6 0.00 0.00 0.00 61 1001.8
20260506182855 20 233 0.0 3.2 0.00 0.00 0.00 60 1001.6
20260506182357 20 262 0.0 3.2 0.00 0.00 0.00 60 1001.7
20260506181932 20 249 0.0 3.2 0.00 0.00 0.00 60 1001.8
20260506181343 20 199 1.6 3.2 0.00 0.00 0.00 60 1001.5
20260506180843 20 200 3.2 4.8 0.00 0.00 0.00 61 1001.7
20260506180331 20 182 1.6 4.8 0.00 0.00 0.00 61 1001.6
20260506175830 20 237 0.0 1.6 0.00 0.00 0.00 63 1001.6
20260506175331 21 223 0.0 1.6 0.00 0.00 0.00 62 1001.6
20260506174830 21 244 0.0 1.6 0.00 0.00 0.00 60 1001.7
20260506174332 21 237 0.0 1.6 0.00 0.00 0.00 59 1001.7
20260506173332 21 170 0.0 3.2 0.00 0.00 0.00 59 1001.5
20260506172830 21 170 1.6 3.2 0.00 0.00 0.00 59 1001.5
20260506172331 22 167 3.2 3.2 0.00 0.00 0.00 59 1001.5
20260506171831 22 243 0.0 1.6 0.00 0.00 0.00 55 1001.5
20260506171331 23 276 1.6 1.6 0.00 0.00 0.00 56 1001.5
20260506170826 22 262 0.0 1.6 0.00 0.00 0.00 54 1001.5
20260506170318 22 245 0.0 1.6 0.00 0.00 0.00 55 1001.8
20260506165819 22 276 1.6 1.6 0.00 0.00 0.00 55 1001.5
20260506165318 22 252 0.0 3.2 0.00 0.00 0.00 56 1001.5
20260506164819 22 270 1.6 4.8 0.00 0.00 0.00 55 1001.7
20260506164319 22 260 0.0 6.4 0.00 0.00 0.00 55 1001.6
20260506163820 22 258 3.2 6.4 0.00 0.00 0.00 54 1001.7
20260506163319 22 243 1.6 6.4 0.00 0.00 0.00 54 1001.7
20260506162820 22 302 1.6 6.4 0.00 0.00 0.00 55 1001.7
20260506162318 22 253 0.0 6.4 0.00 0.00 0.00 55 1001.7
20260506160819 22 310 1.6 9.7 0.00 0.00 0.00 52 1001.8
20260506155819 23 271 1.6 11.3 0.00 0.00 0.00 51 1002.0
20260506155320 23 283 3.2 11.3 0.00 0.00 0.00 51 1002.0
20260506154819 23 294 1.6 11.3 0.00 0.00 0.00 51 1001.9
20260506154318 23 261 3.2 9.7 0.00 0.00 0.00 49 1002.1
20260506153329 23 265 6.4 11.3 0.00 0.00 0.00 47 1002.1
20260506152807 23 303 4.8 14.5 0.00 0.00 0.00 47 1002.2
20260506152308 23 337 4.8 14.5 0.00 0.00 0.00 46 1002.5
20260506151803 23 262 8.0 11.3 0.00 0.00 0.00 45 1002.2
20260506151256 24 328 1.6 11.3 0.00 0.00 0.00 45 1002.7
20260506150756 24 244 4.8 11.3 0.00 0.00 0.00 45 1002.6
20260506150304 24 263 3.2 11.3 0.00 0.00 0.00 46 1002.3
20260506145255 24 265 1.6 20.9 0.00 0.00 0.00 47 1002.5
20260506144756 24 233 9.7 20.9 0.00 0.00 0.00 46 1002.8
20260506144254 24 247 6.4 17.7 0.00 0.00 0.00 45 1002.8
20260506143755 23 274 6.4 17.7 0.00 0.00 0.00 45 1002.7
20260506143254 24 273 4.8 16.1 0.00 0.00 0.00 46 1002.7
20260506142755 24 271 8.0 16.1 0.00 0.00 0.00 45 1002.7
20260506142254 23 254 11.3 14.5 0.00 0.00 0.00 45 1002.9
20260506140757 24 258 1.6 17.7 0.00 0.00 0.00 47 1002.6
20260506135757 23 258 4.8 16.1 0.00 0.00 0.00 51 1002.9
20260506135256 25 203 3.2 14.5 0.00 0.00 0.00 49 1002.8
20260506134756 25 331 8.0 14.5 0.00 0.00 0.00 48 1002.8
20260506134256 24 282 8.0 16.1 0.00 0.00 0.00 49 1002.9
20260506133757 24 255 1.6 16.1 0.00 0.00 0.00 50 1002.8
20260506132255 25 319 8.0 9.7 0.00 0.00 0.00 48 1003.0
20260506131757 25 255 6.4 11.3 0.00 0.00 0.00 49 1002.9
20260506131256 23 221 3.2 12.9 0.00 0.00 0.00 50 1002.8
20260506130255 24 298 9.7 12.9 0.00 0.00 0.00 52 1003.3
20260506125757 23 351 8.0 12.9 0.00 0.00 0.00 52 1003.2
20260506125256 23 230 4.8 14.5 0.00 0.00 0.00 52 1003.3
20260506124757 24 272 3.2 14.5 0.00 0.00 0.00 51 1003.3
20260506124254 23 252 8.0 16.1 0.00 0.00 0.00 52 1003.4
20260506123756 23 271 3.2 16.1 0.00 0.00 0.00 52 1003.5
20260506123254 23 319 6.4 16.1 0.00 0.00 0.00 52 1003.6
20260506122755 23 303 6.4 16.1 0.00 0.00 0.00 53 1003.6
20260506121755 24 325 6.4 16.1 0.00 0.00 0.00 52 1003.6
20260506121255 23 234 3.2 17.7 0.00 0.00 0.00 54 1003.3
20260506120755 24 262 14.5 22.5 0.00 0.00 0.00 53 1003.6
20260506120253 23 319 9.7 22.5 0.00 0.00 0.00 53 1003.6
20260506115754 23 292 6.4 25.7 0.00 0.00 0.00 54 1003.5
20260506115253 23 329 16.1 25.7 0.00 0.00 0.00 53 1003.5
20260506114754 23 187 1.6 16.1 0.00 0.00 0.00 53 1003.4
20260506114253 23 35 1.6 20.9 0.00 0.00 0.00 54 1003.7
20260506113754 23 244 4.8 20.9 0.00 0.00 0.00 55 1003.5
20260506113253 23 2 4.8 17.7 0.00 0.00 0.00 54 1003.6
20260506112253 23 297 9.7 16.1 0.00 0.00 0.00 54 1003.2
20260506111754 23 336 1.6 16.1 0.00 0.00 0.00 56 1003.6
20260506111253 22 285 4.8 12.9 0.00 0.00 0.00 57 1003.4
20260506110253 22 259 3.2 20.9 0.00 0.00 0.00 58 1003.3
20260506105753 23 336 12.9 20.9 0.00 0.00 0.00 55 1003.7
20260506105253 23 38 9.7 17.7 0.00 0.00 0.00 55 1003.9
20260506104756 23 70 4.8 16.1 0.00 0.00 0.00 56 1003.5